Find Starlink 33664

NORAD ID: 63415 Int'l Des: 2025-065 Owner: SPXS Country: US Constellation: starlink operational
LEOCIRCULAR

Live Position

Loading 3D Globe...

About Starlink 33664

Description loading...

Upcoming Passes

Passes for default location (London). Set your location on the main map for personalized predictions.

Altitude History

Loading altitude history...

Two-Line Element Set

1 63415U 25065S 26123.44135586 .00032943 00000-0 12013-2 0 9997
2 63415 42.9987 157.8086 0001456 275.8459 84.2227 15.27581273 61217
Epoch: May 3, 2026 • Age: 15 hours

Current Status

Altitude 482.4 km
Velocity 7.63 km/s
Sub-Earth Point 12.92°N, 76.95°E
Launch Date Mar 31, 2025
Age 1 years
Type internet

Technical Details

Classification Payload
Mass 575.00 kg
Dry Mass 530.00 kg
Total Mass 575.00 kg
Length 0.30 m
Diameter 4.10 m
Span 29.00 m
Shape Box + pan
Manufacturer SPXS
Bus Type Starlink V2MO
Phase Status In Orbit
Owner/State SPXS/US

Most Searched